STARLINK-35481 (66247 NORAD) Tracking and Keplerian Element Data

This shows tracking and keplerian element data for the satellite.

Feedback or suggestion? Click here.




ElementValue
Catalog66247
NameSTARLINK-35481
Epoch Orbit905
Epoch Day354.08967286
Epoch Year2025
RAAN294.7494
Inclination53.1617
Eccentricity0.0005059
Argument of Perigee21.329
Mean Anonmoly338.7924
Mean Motion15.38725053
Decay Rate0.01007052
L11 66247U 25245P 25354.08967286 .01007052 00000+0 23900-1 0 9997
L22 66247 53.1617 294.7494 0005059 21.3290 338.7924 15.38725053 9054



Live tracking and technical data element details for STARLINK-35481 (NORAD 66247). STARLINK-35481 can be tracked NOW for your location showing map with azimuth and elevation plus other details from your city location.







IsCatalogInMostPopularTable: catalog: 66247, numindb: 4
Update: records affected: 1



GetName: 66247 STARLINK-35481

Hit Count: updated at: Mon, 09 Feb 2026 07:54:47 GMT